EW6135 Weather Reports


Display with metric or nautical units.
time (UTC)temp
F
wind
direction
speed
MPH
gust
MPH
rain 1hr
in
rain 24hr
in
rain mn
in
humidity
%
barometer
mb
20240620015007 72 115 0.0 1.0 0.00 0.00 0.00 87 1025.8
20240620014506 72 115 0.0 0.0 0.00 0.00 0.00 87 1025.8
20240620014004 72 115 0.0 1.0 0.00 0.00 0.00 87 1025.7
20240620013504 73 115 0.0 1.0 0.00 0.00 0.00 87 1025.8
20240620013004 73 115 0.0 1.0 0.00 0.00 0.00 87 1025.8
20240620012504 73 115 0.0 1.0 0.00 0.00 0.00 87 1025.7
20240620012006 73 115 0.0 1.0 0.00 0.00 0.00 87 1025.6
20240620011506 73 115 0.0 0.0 0.00 0.00 0.00 86 1025.5
20240620011002 73 115 0.0 0.0 0.00 0.00 0.00 86 1025.4
20240620010503 73 115 0.0 0.0 0.00 0.00 0.00 85 1025.4
20240620010003 74 115 0.0 0.0 0.00 0.00 0.00 84 1025.4
20240620005501 74 115 0.0 0.0 0.00 0.00 0.00 84 1025.4
20240620005101 74 115 0.0 0.0 0.00 0.00 0.00 84 1025.4
20240620004604 75 115 0.0 0.0 0.00 0.00 0.00 83 1025.5
20240620004101 75 115 0.0 1.0 0.00 0.00 0.00 82 1025.5
20240620003600 75 115 0.0 1.0 0.00 0.00 0.00 82 1025.4
20240620003110 76 115 0.0 1.0 0.00 0.00 0.00 81 1025.4
20240620002600 76 115 0.0 1.0 0.00 0.00 0.00 81 1025.4
20240620002059 76 115 0.0 1.0 0.00 0.00 0.00 80 1025.3
20240620001559 77 115 0.0 3.0 0.00 0.00 0.00 79 1025.3
20240620001059 77 54 0.0 3.0 0.00 0.00 0.00 78 1025.3
20240620000700 77 44 1.0 3.0 0.00 0.00 0.00 78 1025.3
20240620000058 78 113 1.0 6.0 0.00 0.00 0.00 77 1025.3
20240619235059 78 75 1.0 7.0 0.00 0.00 0.00 76 1025.3
20240619234559 79 107 2.0 7.0 0.00 0.00 0.00 75 1025.4
20240619234058 79 148 2.0 9.0 0.00 0.00 0.00 74 1025.3
20240619233601 80 82 3.0 9.0 0.00 0.00 0.00 74 1025.3
20240619233501 80 58 4.0 9.0 0.00 0.00 0.00 74 1025.3
20240619233058 80 49 1.0 6.0 0.00 0.00 0.00 74 1025.3
20240619232558 80 43 1.0 5.0 0.00 0.00 0.00 74 1025.3
20240619232103 80 89 2.0 8.0 0.00 0.00 0.00 72 1025.3
20240619231617 80 63 2.0 8.0 0.00 0.00 0.00 71 1025.4
20240619231057 81 98 2.0 8.0 0.00 0.00 0.00 71 1025.3
20240619230556 81 50 2.0 9.0 0.00 0.00 0.00 71 1025.3
20240619230105 82 99 2.0 6.0 0.00 0.00 0.00 70 1025.2
20240619225057 82 103 1.0 6.0 0.00 0.00 0.00 69 1025.1
20240619224557 82 133 1.0 6.0 0.00 0.00 0.00 70 1025.1
20240619224055 82 96 2.0 6.0 0.00 0.00 0.00 69 1025.2
20240619223557 82 96 3.0 6.0 0.00 0.00 0.00 68 1025.1
20240619223055 82 61 3.0 7.0 0.00 0.00 0.00 68 1025.1
20240619222555 81 61 3.0 7.0 0.00 0.00 0.00 69 1025.1
20240619222054 81 102 2.0 7.0 0.00 0.00 0.00 69 1025.1
20240619221555 81 81 2.0 6.0 0.00 0.00 0.00 69 1025.1
20240619221054 82 94 1.0 7.0 0.00 0.00 0.00 67 1025.1
20240619220555 83 57 3.0 7.0 0.00 0.00 0.00 66 1025.0
20240619220055 83 118 3.0 8.0 0.00 0.00 0.00 66 1024.9
20240619215055 82 70 2.0 9.0 0.00 0.00 0.00 67 1025.0
20240619214555 82 64 2.0 9.0 0.00 0.00 0.00 65 1025.0
20240619214054 83 68 2.0 8.0 0.00 0.00 0.00 63 1025.1
20240619213558 84 229 2.0 9.0 0.00 0.00 0.00 63 1025.1
20240619213058 84 75 2.0 9.0 0.00 0.00 0.00 62 1025.0
20240619212557 85 96 3.0 8.0 0.00 0.00 0.00 61 1025.1
20240619212054 85 77 2.0 8.0 0.00 0.00 0.00 61 1025.1
20240619211557 85 107 3.0 8.0 0.00 0.00 0.00 61 1025.1
20240619211054 85 57 4.0 8.0 0.00 0.00 0.00 61 1025.1
20240619210554 85 118 2.0 9.0 0.00 0.00 0.00 60 1025.0
20240619210056 85 120 4.0 10.0 0.00 0.00 0.00 58 1025.0
20240619205153 85 106 4.0 13.0 0.00 0.00 0.00 59 1025.1
20240619204555 85 94 4.0 13.0 0.00 0.00 0.00 57 1025.1
20240619204053 85 74 4.0 10.0 0.00 0.00 0.00 56 1025.3
20240619203552 85 106 3.0 10.0 0.00 0.00 0.00 55 1025.4
20240619203052 86 75 3.0 10.0 0.00 0.00 0.00 51 1025.4
20240619202551 85 127 3.0 7.0 0.00 0.00 0.00 55 1025.5
20240619202051 85 93 3.0 7.0 0.00 0.00 0.00 59 1025.6
20240619201552 84 184 2.0 7.0 0.00 0.00 0.00 61 1025.6
20240619201051 84 158 3.0 7.0 0.00 0.00 0.00 61 1025.6
20240619200551 83 30 2.0 9.0 0.00 0.00 0.00 64 1025.6
20240619200054 83 346 3.0 8.0 0.00 0.00 0.00 62 1025.7
20240619195053 84 78 1.0 8.0 0.00 0.00 0.00 62 1025.7
20240619194551 84 113 1.0 6.0 0.00 0.00 0.00 61 1025.7
20240619194050 84 53 3.0 6.0 0.00 0.00 0.00 60 1025.7
20240619193550 85 86 2.0 8.0 0.00 0.00 0.00 60 1025.8
20240619193048 84 89 3.0 8.0 0.00 0.00 0.00 59 1025.9
20240619192548 86 68 3.0 8.0 0.00 0.00 0.00 56 1025.9
20240619192048 86 96 2.0 10.0 0.00 0.00 0.00 58 1025.8
20240619191549 85 142 4.0 11.0 0.00 0.00 0.00 58 1025.7
20240619191047 85 77 5.0 11.0 0.00 0.00 0.00 59 1025.8
20240619190547 85 72 3.0 11.0 0.00 0.00 0.00 61 1025.7
20240619190048 84 100 2.0 10.0 0.00 0.00 0.00 60 1025.7
20240619185048 85 88 4.0 10.0 0.00 0.00 0.00 59 1025.6
20240619184549 85 103 3.0 8.0 0.00 0.00 0.00 59 1025.6
20240619184048 85 15 2.0 7.0 0.00 0.00 0.00 61 1025.7
20240619183548 84 73 4.0 10.0 0.00 0.00 0.00 60 1025.6
20240619183051 85 56 4.0 10.0 0.00 0.00 0.00 58 1025.6
20240619182547 85 97 3.0 14.0 0.00 0.00 0.00 58 1025.6
20240619182047 86 75 3.0 14.0 0.00 0.00 0.00 60 1025.6
20240619181551 86 63 4.0 13.0 0.00 0.00 0.00 58 1025.7
20240619181047 86 60 3.0 13.0 0.00 0.00 0.00 58 1025.7
20240619180548 86 105 4.0 11.0 0.00 0.00 0.00 57 1025.8
20240619180046 87 182 3.0 7.0 0.00 0.00 0.00 56 1025.9
20240619175048 86 115 2.0 9.0 0.00 0.00 0.00 62 1025.9
20240619174545 86 85 4.0 9.0 0.00 0.00 0.00 60 1025.9
20240619174045 87 58 2.0 7.0 0.00 0.00 0.00 59 1026.0
20240619173545 86 81 3.0 9.0 0.00 0.00 0.00 62 1026.0
20240619173045 85 98 4.0 10.0 0.00 0.00 0.00 58 1026.0
20240619172547 86 122 2.0 10.0 0.00 0.00 0.00 55 1026.0
20240619172046 86 119 3.0 8.0 0.00 0.00 0.00 56 1026.1
20240619171546 87 188 3.0 10.0 0.00 0.00 0.00 55 1026.0
20240619171043 87 62 2.0 14.0 0.00 0.00 0.00 60 1026.0
20240619170543 86 109 3.0 8.0 0.00 0.00 0.00 55 1026.1
20240619170043 86 136 4.0 13.0 0.00 0.00 0.00 58 1026.1
20240619165043 86 117 3.0 9.0 0.00 0.00 0.00 59 1026.0
20240619164542 86 168 3.0 12.0 0.00 0.00 0.00 58 1026.0
20240619164042 86 98 6.0 12.0 0.00 0.00 0.00 59 1026.1
20240619163544 86 50 2.0 9.0 0.00 0.00 0.00 60 1026.1
20240619163046 86 40 5.0 9.0 0.00 0.00 0.00 60 1026.1
20240619162541 86 90 3.0 8.0 0.00 0.00 0.00 60 1026.2
20240619162040 86 75 2.0 8.0 0.00 0.00 0.00 60 1026.1
20240619161545 85 76 4.0 10.0 0.00 0.00 0.00 58 1026.1
20240619161039 86 307 2.0 10.0 0.00 0.00 0.00 58 1026.2
20240619160539 85 83 3.0 9.0 0.00 0.00 0.00 60 1026.2
20240619160037 84 79 3.0 12.0 0.00 0.00 0.00 61 1026.2
20240619155037 85 68 3.0 10.0 0.00 0.00 0.00 63 1026.0
20240619154541 84 54 4.0 10.0 0.00 0.00 0.00 61 1026.1
20240619154035 85 76 4.0 8.0 0.00 0.00 0.00 60 1026.1
20240619153535 84 139 3.0 9.0 0.00 0.00 0.00 60 1026.0
20240619153046 85 160 3.0 12.0 0.00 0.00 0.00 61 1026.0
20240619152539 84 81 3.0 12.0 0.00 0.00 0.00 59 1026.0
20240619152135 85 62 3.0 9.0 0.00 0.00 0.00 57 1026.0
20240619151542 85 88 4.0 9.0 0.00 0.00 0.00 58 1026.0
20240619151035 85 89 4.0 9.0 0.00 0.00 0.00 56 1025.9
20240619150535 85 83 4.0 11.0 0.00 0.00 0.00 58 1026.1
20240619150038 84 50 3.0 11.0 0.00 0.00 0.00 61 1026.1
20240619145033 84 21 5.0 12.0 0.00 0.00 0.00 56 1026.0
20240619144532 84 60 5.0 12.0 0.00 0.00 0.00 59 1026.1
20240619144031 84 57 3.0 14.0 0.00 0.00 0.00 59 1026.0
20240619143530 83 41 5.0 12.0 0.00 0.00 0.00 60 1025.9
20240619143038 83 80 3.0 10.0 0.00 0.00 0.00 61 1026.0
20240619142527 83 64 3.0 10.0 0.00 0.00 0.00 62 1026.0
20240619142029 83 60 3.0 8.0 0.00 0.00 0.00 60 1026.0
20240619141526 82 186 3.0 10.0 0.00 0.00 0.00 65 1025.9
20240619141026 82 145 2.0 10.0 0.00 0.00 0.00 67 1026.0
20240619140524 82 77 4.0 10.0 0.00 0.00 0.00 66 1026.0
20240619140023 80 95 3.0 8.0 0.00 0.00 0.00 72 1026.0
20240619135023 80 80 4.0 8.0 0.00 0.00 0.00 71 1026.0
20240619134528 81 61 2.0 9.0 0.00 0.00 0.00 70 1026.0
20240619134024 80 90 5.0 9.0 0.00 0.00 0.00 73 1026.0
20240619133523 79 68 3.0 9.0 0.00 0.00 0.00 73 1026.0
20240619133023 79 68 3.0 9.0 0.00 0.00 0.00 72 1026.1
20240619132523 80 42 3.0 7.0 0.00 0.00 0.00 71 1026.2
20240619132023 80 61 3.0 7.0 0.00 0.00 0.00 70 1026.1
20240619131523 81 72 2.0 7.0 0.00 0.00 0.00 69 1025.9
20240619131025 81 56 4.0 7.0 0.00 0.00 0.00 69 1025.9
20240619130520 81 46 3.0 8.0 0.00 0.00 0.00 72 1025.8
20240619130020 80 57 4.0 9.0 0.00 0.00 0.00 70 1025.9
20240619125020 80 93 2.0 9.0 0.00 0.00 0.00 73 1025.8
20240619124518 80 46 2.0 9.0 0.00 0.00 0.00 74 1025.8
20240619124017 80 115 2.0 8.0 0.00 0.00 0.00 74 1026.0
20240619123516 80 51 2.0 7.0 0.00 0.00 0.00 74 1026.0
20240619123016 79 35 2.0 7.0 0.00 0.00 0.00 77 1025.8
20240619122513 79 56 1.0 4.0 0.00 0.00 0.00 77 1025.8
20240619122012 78 46 0.0 4.0 0.00 0.00 0.00 80 1025.7
20240619121511 78 58 1.0 5.0 0.00 0.00 0.00 81 1025.7
20240619121009 77 44 2.0 5.0 0.00 0.00 0.00 81 1025.7
20240619120507 76 61 1.0 4.0 0.00 0.00 0.00 82 1025.7
20240619120009 75 66 1.0 4.0 0.00 0.00 0.00 83 1025.7
20240619115005 75 65 0.0 4.0 0.00 0.00 0.00 84 1025.6
20240619114503 74 93 0.0 2.0 0.00 0.00 0.00 86 1025.6
20240619114002 73 89 0.0 2.0 0.00 0.00 0.00 87 1025.6
20240619113502 73 89 1.0 2.0 0.00 0.00 0.00 88 1025.6
20240619113100 72 63 0.0 2.0 0.00 0.00 0.00 89 1025.5
20240619112601 72 63 1.0 4.0 0.00 0.00 0.00 89 1025.4
20240619112057 71 50 1.0 4.0 0.00 0.00 0.00 91 1025.4
20240619111555 71 56 0.0 2.0 0.00 0.00 0.00 92 1025.2
20240619111054 70 56 0.0 3.0 0.00 0.00 0.00 93 1025.2
20240619110557 69 55 0.0 3.0 0.00 0.00 0.00 94 1025.2
20240619110052 68 56 0.0 1.0 0.00 0.00 0.00 94 1025.1
20240619105052 68 56 0.0 1.0 0.00 0.00 0.00 95 1025.0
20240619104553 67 56 0.0 1.0 0.00 0.00 0.00 94 1025.0
20240619104050 66 56 0.0 1.0 0.00 0.00 0.00 94 1024.9
20240619103550 66 56 0.0 1.0 0.00 0.00 0.00 95 1024.8
20240619103050 66 56 0.0 1.0 0.00 0.00 0.00 95 1024.8
20240619102550 65 56 0.0 1.0 0.00 0.00 0.00 95 1024.7
20240619102048 65 56 0.0 0.0 0.00 0.00 0.00 95 1024.6
20240619101553 64 56 0.0 0.0 0.00 0.00 0.00 94 1024.7
20240619101047 64 56 0.0 0.0 0.00 0.00 0.00 94 1024.7
20240619100547 64 56 0.0 0.0 0.00 0.00 0.00 94 1024.6
20240619100059 64 56 0.0 0.0 0.00 0.00 0.00 94 1024.6
20240619095012 64 56 0.0 0.0 0.00 0.00 0.00 94 1024.5
20240619094512 64 56 0.0 0.0 0.00 0.00 0.00 94 1024.4
20240619094010 64 56 0.0 0.0 0.00 0.00 0.00 94 1024.3
20240619093509 64 56 0.0 0.0 0.00 0.00 0.00 94 1024.2
20240619093017 64 56 0.0 0.0 0.00 0.00 0.00 94 1024.3
20240619092510 64 56 0.0 0.0 0.00 0.00 0.00 94 1024.2
20240619092010 64 56 0.0 0.0 0.00 0.00 0.00 94 1024.3
20240619091508 64 56 0.0 0.0 0.00 0.00 0.00 94 1024.3
20240619091008 64 56 0.0 0.0 0.00 0.00 0.00 93 1024.3
20240619090507 64 56 0.0 0.0 0.00 0.00 0.00 93 1024.3
20240619090006 64 56 0.0 0.0 0.00 0.00 0.00 93 1024.2
20240619085042 64 56 0.0 0.0 0.00 0.00 0.00 93 1024.1
20240619084544 65 56 0.0 0.0 0.00 0.00 0.00 93 1024.1
20240619084041 65 56 0.0 0.0 0.00 0.00 0.00 93 1024.0
20240619083543 65 56 0.0 0.0 0.00 0.00 0.00 93 1024.0
20240619083049 65 56 0.0 0.0 0.00 0.00 0.00 93 1024.0
20240619082541 65 56 0.0 0.0 0.00 0.00 0.00 93 1024.0
20240619082041 65 56 0.0 0.0 0.00 0.00 0.00 93 1023.9
20240619081542 65 56 0.0 0.0 0.00 0.00 0.00 93 1023.9
20240619081042 65 56 0.0 0.0 0.00 0.00 0.00 93 1023.8
20240619080537 65 56 0.0 0.0 0.00 0.00 0.00 93 1023.7
20240619080037 66 56 0.0 0.0 0.00 0.00 0.00 92 1023.6
20240619075035 66 56 0.0 0.0 0.00 0.00 0.00 92 1023.5
20240619074546 66 56 0.0 0.0 0.00 0.00 0.00 92 1023.5
20240619074034 67 56 0.0 0.0 0.00 0.00 0.00 92 1023.4
20240619073533 67 56 0.0 0.0 0.00 0.00 0.00 92 1023.5
20240619073032 67 56 0.0 0.0 0.00 0.00 0.00 92 1023.6
20240619072535 67 56 0.0 0.0 0.00 0.00 0.00 92 1023.6
20240619072036 67 56 0.0 0.0 0.00 0.00 0.00 92 1023.4
20240619071535 68 56 0.0 0.0 0.00 0.00 0.00 92 1023.4
20240619071032 68 56 0.0 0.0 0.00 0.00 0.00 91 1023.4
20240619070532 68 56 0.0 0.0 0.00 0.00 0.00 91 1023.5
20240619070030 69 56 0.0 0.0 0.00 0.00 0.00 92 1023.5
20240619065029 69 56 0.0 0.0 0.00 0.00 0.00 91 1023.5
20240619064529 69 56 0.0 0.0 0.00 0.00 0.00 92 1023.5
20240619064029 69 56 0.0 0.0 0.00 0.00 0.00 92 1023.6
20240619063528 68 56 0.0 0.0 0.00 0.00 0.00 92 1023.6
20240619063032 68 56 0.0 0.0 0.00 0.00 0.00 91 1023.6
20240619062528 68 56 0.0 0.0 0.00 0.00 0.00 91 1023.7
20240619062026 68 56 0.0 0.0 0.00 0.00 0.00 91 1023.8
20240619061528 68 56 0.0 0.0 0.00 0.00 0.00 91 1023.8
20240619061027 68 56 0.0 0.0 0.00 0.00 0.00 91 1023.7
20240619060526 68 56 0.0 0.0 0.00 0.00 0.00 91 1023.7
20240619060032 69 56 0.0 0.0 0.00 0.00 0.00 90 1023.7
20240619055025 69 56 0.0 0.0 0.00 0.00 0.00 90 1023.8
20240619054527 69 56 0.0 0.0 0.00 0.00 0.00 90 1023.8
20240619054028 69 56 0.0 0.0 0.00 0.00 0.00 90 1023.7
20240619053526 69 56 0.0 0.0 0.00 0.00 0.00 90 1023.8
20240619053029 69 56 0.0 0.0 0.00 0.00 0.00 90 1023.8
20240619052523 69 56 0.0 0.0 0.00 0.00 0.00 90 1023.7
20240619052023 69 56 0.0 0.0 0.00 0.00 0.00 90 1023.7
20240619051522 69 56 0.0 0.0 0.00 0.00 0.00 90 1023.8
20240619051021 69 56 0.0 0.0 0.00 0.00 0.00 91 1023.8
20240619050520 68 56 0.0 0.0 0.00 0.00 0.00 91 1023.9
20240619050022 68 56 0.0 0.0 0.00 0.00 0.00 91 1023.8
20240619045019 67 56 0.0 0.0 0.00 0.00 0.00 92 1023.8
20240619044518 67 56 0.0 0.0 0.00 0.00 0.00 92 1023.8
20240619044021 67 56 0.0 0.0 0.00 0.00 0.00 92 1023.9
20240619043521 66 56 0.0 0.0 0.00 0.00 0.00 92 1023.9
20240619043017 66 56 0.0 0.0 0.00 0.00 0.00 92 1024.0
20240619042517 66 56 0.0 0.0 0.00 0.00 0.00 92 1023.9
20240619042018 65 56 0.0 0.0 0.00 0.00 0.00 92 1024.0
20240619041516 65 56 0.0 0.0 0.00 0.00 0.00 92 1024.0
20240619041017 65 56 0.0 0.0 0.00 0.00 0.00 92 1024.1
20240619040519 65 56 0.0 0.0 0.00 0.00 0.00 92 1024.0
20240619040016 66 56 0.0 0.0 0.00 0.00 0.00 92 1024.1
20240619035018 66 56 0.0 0.0 0.00 0.00 0.00 92 1024.2
20240619034517 66 56 0.0 0.0 0.00 0.00 0.00 91 1024.2
20240619034017 66 56 0.0 0.0 0.00 0.00 0.00 91 1024.2
20240619033517 66 56 0.0 0.0 0.00 0.00 0.00 91 1024.2
20240619033017 66 56 0.0 0.0 0.00 0.00 0.00 91 1024.3
20240619032517 66 56 0.0 0.0 0.00 0.00 0.00 91 1024.3
20240619032017 66 56 0.0 0.0 0.00 0.00 0.00 91 1024.2
20240619031517 66 56 0.0 0.0 0.00 0.00 0.00 91 1024.3
20240619031016 66 56 0.0 0.0 0.00 0.00 0.00 91 1024.3
20240619030520 66 56 0.0 0.0 0.00 0.00 0.00 91 1024.2
20240619030020 66 56 0.0 0.0 0.00 0.00 0.00 90 1024.2
20240619025015 67 56 0.0 0.0 0.00 0.00 0.00 90 1024.2
20240619024515 67 56 0.0 0.0 0.00 0.00 0.00 90 1024.2
20240619024014 67 56 0.0 0.0 0.00 0.00 0.00 90 1024.2
20240619023517 67 56 0.0 0.0 0.00 0.00 0.00 90 1024.2
20240619023015 67 56 0.0 0.0 0.00 0.00 0.00 89 1024.2
20240619022514 67 56 0.0 0.0 0.00 0.00 0.00 89 1024.2
20240619022017 67 56 0.0 0.0 0.00 0.00 0.00 89 1024.3
20240619021513 67 56 0.0 0.0 0.00 0.00 0.00 89 1024.3
20240619021013 68 56 0.0 0.0 0.00 0.00 0.00 89 1024.3
20240619020513 68 56 0.0 0.0 0.00 0.00 0.00 88 1024.2
20240619020024 68 56 0.0 0.0 0.00 0.00 0.00 88 1024.2